Location: Regona
(45.2000°N, 9.8167°E)
Time: 02:41:08
(UTC+00:00)

Cosmos 2360 Rocket - Pass Details

Date: 07 June 2020
Orbit: 832 x 846 km, 71.0° (Epoch: 11 July)

Event Time Altitude Azimuth Distance (km) Brightness Sun altitude
Exits shadow 02:25:24 12° 214° (SW) 2,273 3.8 -10.0°
Maximum altitude 02:30:32 70° 298° (WNW) 891 2.3 -9.3°
Drops below altitude 10° 02:36:10 10° 22° (NNE) 2,463 5.9 -8.6°
Sets 02:38:39 0° 25° (NNE) 3,404 6.9 -8.3°
